Location: Alsip
(41.6689°N, 87.7387°W)
Time: 13:29:04
(UTC+00:00)

BREEZE-M DEB (TANK) - Pass Details

Date: 14 July 2020
Orbit: 274 x 20503 km, 49.2° (Epoch: 04 August)

Event Time Altitude Azimuth Distance (km) Brightness Sun altitude
Exits shadow 07:55:42 11° 303° (WNW) 1,456 5.0 -21.0°
Maximum altitude 07:58:23 78° 31° (NNE) 686 3.3 -20.8°
Drops below altitude 10° 08:07:23 10° 118° (ESE) 4,683 7.6 -19.9°
Sets 08:15:03 0° 120° (ESE) 7,941 8.7 -19.1°
